This is the latest recevied weather packets stored in our database for station/object KN6DHD. If no packets are shown the sender has not sent any weather packets the latest 10 day(s).
| Time | Temp. | Humidity | Pressure | Rain* | Wind** | Luminosity | Snow |
|---|---|---|---|---|---|---|---|
| 1776979145 | 22.78° C | 53% | 1017.8 hPa | 0 mm | - | 652 W/m² | - |
| 1776978842 | 21.67° C | 53% | 1017.7 hPa | 0 mm | - | 664 W/m² | - |
| 1776978539 | 21.67° C | 54% | 1018.1 hPa | 0 mm | - | 659 W/m² | - |
| 1776978237 | 22.22° C | 54% | 1018.1 hPa | 0 mm | - | 645 W/m² | - |
| 1776977934 | 22.78° C | 52% | 1018 hPa | 0 mm | - | 629 W/m² | - |
| 1776977630 | 22.22° C | 54% | 1018.2 hPa | 0 mm | - | 603 W/m² | - |
| 1776977326 | 22.78° C | 52% | 1018.2 hPa | 0 mm | - | 615 W/m² | - |
| 1776977023 | 22.22° C | 52% | 1018 hPa | 0 mm | - | 618 W/m² | - |
| 1776976719 | 22.22° C | 53% | 1018.3 hPa | 0 mm | - | 619 W/m² | - |
| 1776976414 | 22.22° C | 53% | 1018.3 hPa | 0 mm | - | 645 W/m² | - |
| 1776976110 | 22.22° C | 54% | 1018.2 hPa | 0 mm | - | 682 W/m² | - |
| 1776975807 | 21.67° C | 53% | 1018.3 hPa | 0 mm | - | 673 W/m² | - |
| 1776975503 | 21.67° C | 53% | 1018.2 hPa | 0 mm | - | 666 W/m² | - |
| 1776975201 | 21.11° C | 54% | 1018.6 hPa | 0 mm | - | 674 W/m² | - |
| 1776974897 | 21.11° C | 57% | 1018.7 hPa | 0 mm | - | 659 W/m² | - |
| 1776974595 | 21.67° C | 53% | 1018.6 hPa | 0 mm | - | 636 W/m² | - |
| 1776974291 | 21.11° C | 54% | 1018.7 hPa | 0 mm | - | 649 W/m² | - |
| 1776973989 | 21.11° C | 53% | 1018.6 hPa | 0 mm | - | 657 W/m² | - |
| 1776973686 | 21.11° C | 55% | 1018.6 hPa | 0 mm | - | 622 W/m² | - |
| 1776973384 | 21.67° C | 53% | 1019 hPa | 0 mm | - | 624 W/m² | - |
| 1776973081 | 20.56° C | 57% | 1019 hPa | 0 mm | - | 627 W/m² | - |
| 1776972776 | 20.56° C | 56% | 1019.3 hPa | 0 mm | - | 625 W/m² | - |
| 1776972471 | 20.56° C | 57% | 1019.4 hPa | 0 mm | - | 649 W/m² | - |
| 1776972170 | 20.56° C | 58% | 1019.2 hPa | 0 mm | - | 656 W/m² | - |
| 1776971865 | 20.56° C | 56% | 1019.3 hPa | 0 mm | - | 643 W/m² | - |
* Rain latest hour (hover to see other rain measurements)
** Current wind speed in m/s (hover to see current wind gust speed)